Location: Bourg-d�Oueil
(42.8588°N, 0.4991°E)
Time: 18:39:30
(UTC+00:00)

Cosmos 2237 Rocket - Pass Details

Date: 16 June 2021
Orbit: 835 x 849 km, 71.0° (Epoch: 22 July)

Event Time Altitude Azimuth Distance (km) Brightness Sun altitude
Exits shadow 21:42:24 10° 95° (E) 2,437 4.2 -16.7°
Drops below altitude 10° 21:42:55 10° 89° (E) 2,447 4.3 -16.7°
Sets 21:48:12 0° 48° (NE) 3,390 5.5 -17.2°
